{"data":{"norad_id":68921,"epoch":"2026-09-19T19:14:54.747456Z","epoch_age_seconds":75503,"freshness":"FRESH","line1":"1 68921U 26098C   26262.80202254  .00000183  00000+0  53025-4 0  9992","line2":"2 68921  51.9005 354.7702 0000515  91.6341 268.4680 14.79927629 21565","mean_motion":14.79927629,"eccentricity":5.15e-5,"inclination_deg":51.9005,"raan_deg":354.7702,"arg_perigee_deg":91.6341,"mean_anomaly_deg":268.468,"bstar":5.3025e-5,"rev_number":2156,"period_min":97.302055302057,"perigee_km":629.19168812875,"apogee_km":629.91348015592,"semimajor_km":7007.6895841423,"source":"CELESTRAK","updated_at":"2026-09-20T09:00:24.552685Z"}}